Temp
23 23 23 22 21 17 20 23 25 27 29 28 29 28 26 27 27 24 27 27 27 27 26 25 25 24 25 25 24 24 24 24 24 24 24 24 24 23 23 22 22 21 21 21 21 21 21 20 20
23 23 23 18 18 18 20 23 28 28 29 29 30 29 27 26 26 25 26 26 27 27 26 25 25 25 24 24 25 24 24 24 24 24 24 24 24 23 22 22 22 21 21 20 21 20 21 20 20
23 22 19 18 17 18 21 26 28 27 29 29 30 29 27 26 26 25 26 26 26 26 26 26 25 25 24 24 24 24 24 23 24 24 23 23 23 23 22 22 21 21 20 20 20 20 20 20 20
22 20 18 19 20 21 24 24 26 28 29 29 28 26 25 25 26 26 26 26 26 25 25 25 25 25 24 24 23 24 24 23 23 23 23 23 23 23 22 22 21 21 21 20 20 19 20 20 20
21 16 18 19 20 22 24 25 27 26 28 27 28 24 24 26 26 26 26 27 26 24 25 24 24 23 23 24 24 24 23 23 23 23 23 23 23 22 22 22 21 21 21 20 20 20 20 20 20
17 16 18 19 21 23 24 24 27 26 26 27 27 24 25 26 27 26 27 27 26 25 24 24 23 23 23 23 23 23 23 23 23 23 23 23 22 22 22 22 21 21 20 20 20 20 20 20 20
19 17 18 21 21 22 25 25 24 25 25 26 27 24 25 25 26 27 27 26 26 25 24 24 24 23 23 23 23 23 23 23 22 22 23 22 22 22 22 22 21 21 21 20 20 20 20 20 20
17 17 20 20 21 21 24 25 23 24 26 26 26 24 24 25 26 26 26 25 24 25 24 24 24 23 23 23 23 23 22 23 21 22 22 22 22 22 21 21 21 21 21 20 20 20 20 20 20
20 18 17 20 22 23 24 23 23 25 25 25 25 25 25 25 27 27 27 25 24 23 23 22 23 23 23 22 22 22 22 21 21 21 21 21 21 21 21 21 21 21 21 20 20 20 20 20 20
19 17 19 20 22 22 22 22 22 23 22 23 22 22 24 24 25 24 25 25 25 25 22 22 22 22 22 22 21 21 21 21 21 20 20 21 20 20 20 21 21 20 20 20 20 20 20 19 19
20 18 20 22 21 21 23 22 23 23 22 23 22 21 21 24 23 24 25 24 24 23 23 24 22 21 22 21 21 21 21 20 21 21 20 20 21 20 20 20 20 19 19 19 19 19 19 19 19
20 21 21 21 23 21 21 23 22 23 22 23 22 22 22 22 23 24 24 22 19 18 20 19 20 19 19 20 20 21 21 21 20 20 20 20 20 20 19 19 20 19 19 19 19 19 20 19 19
20 21 21 21 20 20 21 22 22 21 21 21 21 22 21 22 24 23 18 17 17 16 16 17 18 19 18 19 18 18 19 19 20 20 20 20 19 19 19 19 19 19 19 19 19 19 19 19 19
20 19 19 20 20 20 21 21 21 22 22 21 21 21 21 21 16 15 15 14 14 14 14 15 16 16 17 17 17 17 17 16 18 19 20 20 20 19 19 19 19 19 19 19 19 19 19 19 19
20 19 19 21 21 20 22 20 21 21 21 21 19 21 21 15 15 14 13 13 13 13 13 14 14 15 16 16 16 17 16 16 17 16 18 19 20 21 20 19 19 19 19 19 19 19 19 19 18
18 19 18 20 22 21 20 19 20 20 21 23 21 21 16 14 13 13 12 11 11 11 11 12 12 13 14 15 16 16 17 17 16 16 15 16 17 18 20 20 19 20 19 20 19 19 18 19 18
17 16 18 20 22 22 20 20 21 20 22 22 20 19 14 13 12 11 10 9 9 9 8 9 9 10 11 12 12 14 15 16 16 16 15 15 15 17 16 20 20 19 20 20 19 18 18 18 18
16 17 18 17 20 19 19 19 19 19 20 19 18 13 12 11 10 9 8 7 7 7 6 6 6 7 8 9 11 11 12 14 14 14 12 15 15 14 15 17 18 20 19 20 19 18 18 18 18
16 16 16 17 19 19 18 17 19 20 16 13 12 12 11 10 9 8 6 5 5 4 4 4 4 4 5 5 6 7 6 8 10 11 12 12 13 15 14 16 19 18 18 19 19 18 17 17 17
16 16 16 18 20 19 18 17 18 16 12 12 10 9 9 8 7 7 5 4 3 3 2 2 2 3 3 3 3 4 4 6 6 8 9 10 11 13 13 14 16 15 18 19 20 19 17 17 17
17 17 17 17 17 18 17 16 18 15 13 11 9 8 7 6 5 5 4 3 2 1 1 1 1 1 2 2 2 2 4 4 5 6 7 8 8 10 11 13 14 16 19 15 18 20 18 19 18
17 18 18 17 15 13 16 12 15 13 11 10 8 6 5 4 4 4 3 2 1 1 -0 -0 -0 -0 0 -0 -0 0 1 1 2 3 4 5 6 7 9 10 12 14 16 16 19 19 19 19 19
17 18 17 16 14 14 14 12 14 13 10 8 7 6 4 4 3 3 2 1 0 -0 -1 -1 -1 -1 -1 -1 -1 -1 -0 0 0 1 2 4 5 5 7 8 10 12 14 16 18 18 18 19 19
17 16 14 14 13 12 15 13 12 9 9 8 7 6 4 4 2 2 1 0 -0 -1 -1 -1 -1 -1 -1 -2 -2 -2 -2 -1 -0 1 1 2 3 4 5 6 8 10 13 14 16 17 18 18 19
16 13 10 10 10 11 14 13 10 8 8 7 6 5 3 2 1 0 -0 -1 -1 -1 -1 -1 -1 -1 -2 -2 -2 -2 -2 -2 -1 -0 1 2 2 3 4 5 6 8 10 12 14 15 17 17 17
14 13 11 12 11 11 13 12 9 8 8 7 6 4 3 1 0 -0 -1 -1 -1 -2 -1 -1 -2 -2 -2 -2 -2 -2 -1 -1 -1 -0 1 1 2 3 3 4 5 6 8 10 12 13 16 17 17
15 13 14 12 12 10 11 8 9 8 7 6 6 4 2 0 -1 -1 -2 -1 -2 -2 -2 -2 -2 -2 -2 -2 -2 -2 -1 -0 0 1 1 1 2 3 4 4 5 5 6 8 10 12 14 17 17
14 14 11 9 11 11 11 11 8 6 6 6 5 2 1 -0 -1 -2 -2 -2 -2 -2 -3 -2 -3 -3 -3 -3 -2 -2 -1 -1 -0 1 1 2 3 4 4 4 5 6 6 7 9 12 14 16 16
13 12 12 11 10 10 8 5 3 4 4 4 4 3 0 -1 -2 -2 -2 -3 -3 -3 -3 -3 -3 -3 -3 -3 -3 -2 -2 -2 -1 -1 -0 0 1 2 4 6 6 6 7 7 8 11 13 15 16
13 12 11 9 11 9 10 8 6 4 4 4 4 3 2 -0 -2 -3 -3 -3 -4 -4 -4 -4 -4 -4 -4 -3 -3 -3 -2 -2 -2 -2 -1 -1 -1 -0 0 3 4 5 6 7 9 11 13 14 16
Height
786 785 783 781 809 821 823 804 782 776 769 756 752 757 766 761 769 795 766 765 765 765 766 767 768 772 774 774 776 778 780 782 784 786 789 791 793 794 796 798 799 801 803 805 806 808 809 811 812
786 785 785 792 823 838 825 793 781 770 760 753 749 754 762 774 760 764 766 765 764 764 766 768 769 770 773 774 775 777 779 782 784 787 789 791 793 795 797 799 800 801 804 806 807 809 811 812 813
787 787 796 810 827 834 819 784 777 768 754 752 755 749 759 772 765 767 768 765 763 765 766 768 770 772 772 774 775 776 778 781 783 786 789 792 793 795 797 799 801 802 804 807 809 809 811 811 812
788 790 800 817 818 808 794 784 773 769 756 752 753 768 764 765 764 766 767 766 764 766 768 771 772 772 773 774 775 776 777 780 783 785 788 790 792 794 796 798 800 802 804 806 808 810 812 812 812
791 800 819 821 814 799 786 777 765 772 764 763 755 777 772 767 766 766 766 765 764 766 768 770 772 774 774 775 775 776 777 779 780 783 786 788 790 792 794 795 797 800 803 805 808 810 811 812 814
803 807 825 827 811 796 786 777 770 771 768 763 765 774 775 767 766 765 765 764 764 765 767 768 770 773 774 776 776 776 777 779 780 781 783 785 787 790 791 793 794 796 800 804 806 808 809 811 813
804 818 827 815 811 802 788 776 782 779 774 769 760 779 774 770 768 766 764 765 766 767 767 767 767 769 772 774 776 777 776 777 779 780 781 783 784 787 790 791 793 795 796 800 804 806 807 808 811
800 812 817 815 813 810 788 782 779 780 778 765 763 781 780 771 770 770 768 767 767 767 766 766 766 767 768 770 773 775 777 778 779 780 782 782 783 785 787 789 790 792 794 797 800 803 805 807 808
793 819 827 812 803 794 786 792 780 774 778 772 771 773 773 772 770 768 768 769 770 768 766 766 767 766 767 769 770 772 774 776 778 779 781 783 783 783 784 786 788 790 791 794 797 800 803 805 806
801 818 811 796 792 792 786 789 787 784 784 780 777 772 774 774 771 769 768 766 766 766 766 767 768 767 767 768 768 769 771 772 774 777 779 779 781 781 782 784 786 788 790 791 794 797 800 802 804
799 810 794 786 784 786 785 785 777 782 787 781 783 778 775 772 769 767 767 765 765 766 766 766 767 767 766 766 767 768 768 770 771 772 774 776 777 780 779 782 783 786 789 791 792 795 797 798 800
802 792 789 783 779 783 787 777 780 777 778 773 774 775 773 772 769 767 766 766 767 766 763 766 769 770 769 768 768 768 768 768 769 770 771 773 773 774 776 776 777 779 783 787 790 791 794 795 797
795 790 786 783 780 780 778 781 779 777 769 768 770 771 771 768 766 767 770 770 771 769 771 769 768 768 769 768 770 770 768 768 769 771 771 770 771 772 774 775 776 776 777 780 784 785 789 793 794
791 792 788 780 778 778 779 779 777 772 765 769 769 769 768 768 772 772 773 775 774 775 774 773 771 771 771 769 768 769 768 768 769 768 768 768 770 771 772 770 773 773 773 774 777 780 784 788 791
793 797 790 777 776 777 771 781 779 765 768 770 769 768 768 775 776 779 782 781 780 780 779 774 773 772 771 770 770 767 768 768 767 767 768 764 765 764 767 768 766 766 767 768 772 776 781 785 788
801 799 805 779 774 769 775 789 771 764 769 768 767 767 777 784 786 786 787 786 785 782 779 778 776 773 771 770 767 767 765 764 764 765 764 762 754 755 765 762 760 762 765 765 765 769 773 778 782
807 814 803 791 771 774 779 785 773 769 769 769 771 771 785 789 792 794 794 792 789 786 784 780 775 773 770 768 766 763 762 760 760 761 761 760 759 756 756 757 753 757 764 763 762 761 765 769 773
814 810 802 803 783 780 782 783 779 774 773 774 776 786 792 795 799 800 798 796 792 788 786 784 778 774 772 767 762 759 757 756 755 755 758 757 757 757 749 742 748 754 754 755 758 755 759 764 768
804 806 807 796 780 783 785 787 779 774 783 788 793 797 799 802 805 803 800 798 794 789 786 785 780 775 772 767 762 755 753 750 750 749 751 754 753 749 743 744 743 743 749 752 756 754 754 760 768
802 803 800 789 776 779 783 782 782 785 799 799 804 808 810 809 807 804 802 799 796 794 791 787 782 777 773 771 768 766 759 751 748 745 745 747 748 746 744 742 740 745 745 747 748 748 751 755 760
796 796 793 793 786 782 784 785 779 794 799 805 811 814 815 815 812 808 805 804 802 798 795 790 784 779 775 772 767 762 756 748 743 741 738 737 739 739 739 738 740 735 737 739 742 742 742 748 753
797 783 785 790 799 809 790 812 789 794 804 809 815 818 820 818 816 812 810 808 806 802 797 792 786 781 776 773 768 764 757 749 743 740 735 731 730 729 730 730 731 731 732 735 734 734 729 739 743
790 783 787 790 801 800 802 812 783 789 807 815 818 820 823 823 821 818 815 811 807 803 800 794 787 783 777 772 766 760 754 749 742 736 731 728 724 724 723 723 722 724 725 726 728 725 720 729 732
780 787 795 797 803 812 791 802 795 808 808 815 819 822 824 825 824 822 819 813 809 804 798 790 784 778 773 767 762 756 751 746 740 734 728 724 720 718 720 718 717 717 716 716 714 715 717 721 726
783 801 827 824 820 811 789 795 807 814 816 818 821 825 827 828 826 823 818 814 809 803 796 790 783 776 770 764 758 752 748 743 737 731 725 720 716 713 712 714 712 711 710 709 711 711 712 713 717
787 796 818 809 813 812 791 796 810 815 816 817 821 825 827 828 827 824 820 815 809 803 798 790 784 776 769 763 756 749 744 738 732 726 721 716 711 708 706 705 704 704 704 703 705 706 706 706 707
787 799 792 800 802 815 799 816 812 814 819 819 820 825 827 829 827 825 822 818 813 808 801 794 786 778 771 764 755 747 740 733 726 720 715 711 706 702 700 698 695 696 697 698 698 698 699 698 698
783 786 808 819 807 804 795 792 811 819 818 819 822 828 831 830 828 827 824 820 814 809 802 795 786 779 771 763 754 745 737 729 722 716 710 705 700 698 693 691 689 687 687 689 691 690 689 690 690
790 797 797 803 804 810 821 834 824 823 822 824 824 827 832 831 831 829 825 820 815 810 801 794 785 777 768 761 753 744 736 728 721 715 710 705 700 695 687 680 681 681 680 682 682 683 683 684 684
785 790 795 813 795 801 796 802 809 818 820 822 824 825 828 833 833 830 826 821 816 809 801 792 784 777 771 765 756 747 739 731 723 717 711 705 700 694 688 679 676 676 675 674 674 674 676 678 678
Wind_Speed
12 9 10 5 4 5 3 6 3 3 2 3 5 7 7 1 4 4 6 5 2 4 15 18 18 15 14 14 14 14 15 15 15 15 14 14 14 15 15 15 15 14 14 14 14 13 11 10 11
10 7 4 2 4 3 5 5 3 2 4 3 3 5 6 3 4 4 3 9 4 3 11 17 18 16 14 13 14 15 15 15 15 15 16 15 15 14 13 13 12 12 10 11 11 11 10 10 11
7 4 3 3 3 5 4 3 4 6 2 2 1 4 4 1 4 4 6 5 6 8 11 14 16 15 15 13 13 14 14 16 16 17 16 15 15 15 13 12 11 10 9 8 9 10 10 10 12
7 6 4 3 6 5 4 9 7 4 3 3 4 7 5 7 4 8 9 7 8 7 10 13 14 16 16 14 13 13 15 16 17 17 18 17 16 15 15 13 11 10 9 8 9 9 8 10 12
4 3 3 2 5 5 6 9 5 4 1 5 5 3 5 4 16 14 14 12 10 8 9 9 11 15 15 14 13 14 15 17 18 18 20 19 18 17 17 15 13 11 10 9 10 8 8 10 10
4 3 2 3 5 5 7 7 6 6 6 4 6 4 1 3 13 10 9 12 8 6 10 9 8 12 14 13 13 14 15 16 18 20 22 21 19 19 19 17 16 14 12 11 11 10 10 10 9
5 3 3 3 5 6 5 7 7 5 3 5 4 5 0 4 9 10 9 6 3 4 5 7 7 10 14 14 14 14 15 18 19 21 22 22 21 21 20 19 18 16 14 13 11 11 12 12 11
4 4 3 3 3 5 6 8 6 8 4 9 4 3 1 2 7 11 14 6 4 4 6 9 10 10 12 16 17 16 16 18 19 20 21 23 22 22 22 21 20 18 16 15 14 13 13 13 14
3 2 2 4 1 4 3 5 7 3 3 3 4 4 3 7 8 6 9 6 0 7 10 12 11 9 11 15 20 19 18 18 20 21 22 22 24 23 24 24 22 20 18 17 16 15 14 14 14
3 4 7 6 3 6 6 3 3 4 9 6 8 11 15 6 8 8 4 4 9 9 11 11 11 10 9 12 19 21 20 21 23 24 24 25 26 26 26 26 24 22 21 20 19 17 17 17 16
2 5 6 9 9 5 4 5 2 2 0 2 5 9 10 7 8 4 3 4 11 11 5 6 11 11 10 12 15 21 22 23 24 25 27 29 28 27 28 28 27 25 23 22 21 20 20 20 19
4 6 4 6 4 4 5 4 5 4 6 5 6 5 3 8 5 4 5 16 23 26 14 5 3 7 11 12 15 17 23 26 26 27 28 30 31 30 31 32 32 30 28 26 25 24 23 22 21
5 3 7 7 6 6 3 5 5 6 9 7 7 7 7 6 3 8 26 24 25 29 26 24 18 12 12 8 11 14 21 26 28 28 29 30 32 33 33 33 33 33 32 30 30 28 25 24 23
5 8 8 8 11 4 5 5 1 7 7 8 6 7 6 4 11 19 24 23 26 24 25 22 24 22 20 18 18 21 18 16 23 27 32 34 34 35 36 35 34 34 35 34 33 31 28 26 26
7 6 8 13 5 7 2 4 8 15 1 7 7 5 2 8 21 20 23 25 24 25 24 25 22 21 21 21 23 19 21 21 16 15 32 39 37 37 37 36 36 37 38 34 33 31 29 28 28
6 3 1 6 1 7 8 6 9 7 5 2 3 7 12 14 19 23 23 24 26 25 25 23 23 22 23 22 21 24 22 22 20 19 20 20 37 34 36 39 39 39 38 36 35 34 33 32 30
3 3 4 7 4 2 3 3 6 7 4 4 4 3 13 14 19 23 24 25 27 28 27 27 26 27 26 25 26 24 25 26 27 26 24 21 17 30 43 44 40 36 38 35 38 35 36 35 34
4 3 3 5 6 3 3 3 6 7 6 3 6 13 13 14 14 21 25 25 27 29 29 29 28 29 30 28 29 30 27 28 30 31 26 25 26 25 39 42 34 36 35 37 39 34 35 35 34
6 9 9 6 6 6 7 2 2 4 10 13 13 12 12 13 15 21 25 27 31 33 34 33 34 32 32 30 33 30 29 33 34 34 33 28 26 27 26 23 42 33 35 36 39 32 31 30 30
10 13 11 5 4 5 5 11 4 9 8 13 14 13 11 11 13 21 25 29 30 29 31 31 33 34 33 25 27 23 29 23 31 35 32 28 29 28 27 22 21 50 36 35 39 33 26 28 30
12 10 5 3 4 4 4 9 1 10 15 16 14 11 13 12 13 15 23 25 27 29 31 29 29 31 28 28 30 29 31 28 22 26 31 28 28 33 32 30 24 26 43 46 44 40 34 24 30
4 3 0 3 5 3 4 6 6 9 12 13 11 11 10 12 12 13 19 22 23 25 28 28 28 26 25 27 24 23 23 26 28 28 31 34 30 31 34 32 29 23 25 42 42 42 37 34 28
3 1 3 2 2 4 2 2 6 9 7 8 8 10 9 9 11 12 18 22 23 25 25 25 24 24 24 25 25 24 24 25 30 30 29 30 31 29 33 32 30 30 24 25 38 34 31 38 36
4 4 6 3 3 4 4 6 5 4 2 5 7 9 10 10 9 13 18 21 22 26 28 29 29 29 28 28 27 25 26 28 29 29 30 29 28 28 24 28 28 23 27 29 27 37 36 38 42
3 5 3 4 1 6 3 3 1 5 7 7 7 7 7 8 9 10 15 20 23 26 28 29 30 30 30 29 28 28 26 27 29 29 28 28 29 27 25 22 25 26 26 26 27 29 40 40 37
5 8 5 6 3 4 7 5 3 6 7 7 8 7 8 8 9 11 18 21 25 27 29 29 29 29 30 29 29 27 27 25 26 26 27 28 27 27 28 29 29 32 34 34 32 25 29 38 37
1 1 4 1 0 3 4 2 4 6 4 4 5 7 9 8 10 12 18 20 23 24 28 26 28 28 29 29 29 28 26 24 25 29 29 28 28 28 29 28 29 27 27 29 28 25 26 29 33
5 4 1 2 4 8 4 4 4 5 1 3 5 6 6 8 11 10 16 19 23 24 28 25 28 29 29 31 30 29 27 25 23 21 22 21 22 23 29 32 31 30 28 28 27 28 27 26 28
2 1 1 3 4 4 3 5 4 7 4 3 4 5 4 8 8 10 16 19 22 24 29 27 30 32 33 35 34 31 29 27 24 22 19 18 18 19 23 25 30 31 29 26 26 26 27 26 26
3 4 5 5 6 4 6 9 2 6 5 5 4 5 7 6 5 8 13 17 21 24 29 30 34 36 36 34 32 31 30 29 28 27 26 25 23 23 22 17 14 8 8 14 18 21 22 25 27
Wind_Direction
329 331 328 11 43 60 286 271 272 275 349 215 287 95 122 357 139 162 74 63 31 187 187 184 180 179 174 168 163 159 157 158 157 156 152 148 144 142 142 142 143 141 141 143 146 148 141 137 128
342 346 24 67 85 59 279 249 183 260 231 264 117 106 50 89 58 84 94 26 31 147 189 195 187 185 181 176 171 166 164 163 165 166 164 158 155 152 149 148 149 148 146 146 149 147 142 141 135
2 359 72 86 120 171 212 236 346 291 349 45 26 53 89 78 42 77 67 25 57 171 182 196 197 195 188 186 181 175 171 172 173 172 171 166 162 160 158 157 157 156 157 153 149 146 147 147 142
5 17 17 94 242 257 244 297 249 249 345 2 157 82 59 357 98 118 78 58 66 144 189 201 208 207 198 192 189 185 182 181 180 179 179 173 171 169 168 168 168 167 161 156 154 153 154 150 147
33 62 41 322 271 282 311 276 303 90 65 348 345 29 96 23 110 111 95 75 69 135 170 188 223 215 203 198 196 195 192 190 185 185 184 181 178 177 176 175 175 176 174 163 157 160 160 155 153
23 83 59 246 272 297 299 323 344 24 354 355 66 93 99 125 94 98 67 63 66 132 181 188 191 213 213 211 205 204 199 197 190 188 189 187 184 185 183 183 183 182 181 176 170 169 167 162 158
115 84 236 277 286 336 346 354 42 339 44 6 360 92 111 343 56 90 87 67 76 150 180 192 199 199 215 218 218 215 207 202 196 193 193 194 190 189 190 189 189 189 186 184 182 179 175 172 166
109 98 332 295 288 295 356 6 332 40 356 313 19 65 95 357 68 81 76 87 148 201 206 202 212 214 215 220 218 218 217 209 202 202 202 201 198 195 195 196 195 194 193 191 189 189 185 181 172
106 66 206 255 228 296 335 15 334 281 355 356 31 96 150 108 95 88 27 61 129 220 227 212 216 221 229 229 220 215 215 215 213 213 209 209 205 202 200 200 201 200 196 195 193 190 192 189 183
119 158 222 207 221 270 292 9 267 24 341 353 348 358 11 139 107 106 91 341 337 327 226 240 227 234 234 232 227 220 218 216 217 218 214 212 212 209 205 204 205 206 202 199 197 195 194 196 195
245 207 230 265 251 220 253 293 268 41 152 197 304 318 343 350 12 66 11 5 5 11 304 225 243 239 242 230 236 229 225 225 221 219 218 216 214 215 209 208 204 207 208 204 200 197 202 202 199
314 264 230 278 331 349 293 285 321 199 240 223 246 261 327 302 334 335 349 41 57 48 53 22 336 309 255 241 239 243 238 235 232 227 223 221 218 214 214 211 207 205 207 209 207 204 207 206 205
204 256 305 292 271 270 267 283 268 270 265 286 295 313 313 308 227 34 80 66 61 53 48 51 56 40 21 8 359 287 261 250 242 239 235 229 224 219 216 219 214 211 209 210 212 211 210 211 207
312 318 310 298 296 266 257 277 58 266 279 316 264 247 277 349 74 64 56 51 51 49 44 40 36 31 27 23 19 14 11 337 266 249 249 241 234 226 221 218 221 219 217 215 216 216 214 216 213
308 312 332 285 288 290 89 312 258 264 334 279 285 216 123 89 61 57 55 53 51 43 32 31 21 14 11 4 358 358 358 356 348 301 260 254 242 236 227 223 220 223 221 217 219 220 221 221 220
327 310 262 291 312 269 130 275 278 268 229 190 157 180 89 64 62 56 52 49 42 36 32 25 17 10 3 354 345 339 335 334 338 334 325 302 254 243 245 231 226 226 226 221 220 220 218 221 222
278 253 239 304 322 322 103 319 324 351 11 272 221 202 87 73 58 48 45 39 38 32 24 18 11 4 357 347 340 332 326 321 317 319 325 320 325 243 259 244 227 226 228 228 223 216 217 215 217
243 247 294 272 299 31 305 235 324 322 9 333 352 90 73 67 53 43 36 33 28 22 17 10 8 360 354 345 334 328 326 317 312 311 318 314 315 311 265 240 244 233 225 227 223 214 214 217 215
276 279 269 255 266 339 298 245 261 324 34 48 62 65 63 55 47 41 30 25 18 14 9 3 358 357 354 353 347 338 336 327 316 308 308 312 306 315 321 292 234 243 250 241 229 213 210 212 215
249 262 265 256 283 316 313 304 158 82 67 79 71 56 48 38 29 26 23 16 12 6 2 357 353 350 349 350 339 327 317 311 309 306 307 303 299 296 303 322 244 212 237 246 240 224 212 220 206
263 250 267 281 312 319 323 289 55 76 91 78 67 63 50 35 24 16 13 10 4 359 353 350 348 345 346 335 333 326 316 311 317 313 307 306 305 293 293 295 308 254 232 237 242 230 223 225 219
259 274 133 47 45 290 72 290 265 105 87 68 62 54 43 29 23 14 6 2 355 349 346 345 343 342 335 332 328 322 316 308 307 303 300 301 304 302 296 292 293 300 251 230 235 227 224 223 226
178 108 70 73 64 314 125 140 276 125 85 67 58 56 48 35 19 6 4 355 350 346 341 340 340 336 333 330 325 318 309 303 301 299 298 297 298 297 296 294 291 288 289 271 250 248 231 232 228
165 87 32 40 113 263 267 179 277 30 80 91 64 50 42 23 15 9 357 352 347 344 345 345 344 340 338 332 325 317 308 302 297 296 295 296 295 295 294 296 291 290 285 286 283 255 243 240 237
123 75 351 321 358 233 26 352 360 93 66 82 66 56 41 22 10 360 356 352 347 348 350 347 345 340 338 335 327 319 307 297 289 288 288 290 292 290 286 285 287 285 279 275 283 278 253 248 246
190 156 167 232 228 271 314 247 213 104 78 77 82 66 39 22 9 1 355 352 351 350 348 344 346 340 340 336 329 321 309 298 290 285 282 282 282 284 285 284 280 282 280 275 274 283 272 253 253
189 136 195 182 136 262 232 90 187 138 76 51 42 44 33 15 10 1 354 355 349 347 347 346 347 344 344 340 337 331 325 316 301 293 284 277 277 278 282 280 282 278 273 271 271 280 269 262 247
149 169 60 359 278 262 238 218 223 188 212 16 39 45 23 14 7 352 353 351 349 351 346 351 353 348 345 347 346 342 340 340 335 326 314 311 303 294 286 275 272 274 274 273 268 267 269 258 236
10 283 188 190 179 238 291 261 214 185 176 118 66 82 46 22 353 339 344 350 350 352 352 356 357 355 353 352 349 350 353 359 2 359 351 347 342 336 347 272 263 270 273 271 268 258 267 248 228
202 230 201 207 241 238 239 260 133 156 144 115 69 30 26 33 340 332 344 351 356 359 358 360 1 359 355 354 352 355 2 11 15 13 15 18 19 19 20 34 43 28 298 276 266 264 263 252 238